This is the latest recevied weather packets stored in our database for station/object OE9XVI-6. If no packets are shown the sender has not sent any weather packets the latest 10 day(s).
| Time | Temp. | Humidity | Pressure | Rain* | Wind** | Luminosity | Snow |
|---|---|---|---|---|---|---|---|
| 1777871817 | 10.56° C | 61% | 1016 hPa | 0 mm | - | - | - |
| 1777871218 | 10.56° C | 63% | 1016 hPa | 0 mm | - | - | - |
| 1777870617 | 10.56° C | 65% | 1016 hPa | 0 mm | - | - | - |
| 1777870017 | 10° C | 67% | 1016.1 hPa | 0 mm | - | - | - |
| 1777869423 | 10° C | 67% | 1016.1 hPa | 0 mm | - | - | - |
| 1777868818 | 10° C | 67% | 1016.1 hPa | 0 mm | - | - | - |
| 1777867020 | 10° C | 68% | 1016.2 hPa | 0 mm | - | - | - |
| 1777865822 | 10° C | 68% | 1016.3 hPa | 0 mm | - | - | - |
| 1777864017 | 9.44° C | 72% | 1016.5 hPa | 0 mm | - | - | - |
| 1777862822 | 9.44° C | 71% | 1016.7 hPa | 0 mm | - | - | - |
| 1777862217 | 9.44° C | 71% | 1016.8 hPa | 0 mm | - | - | - |
| 1777861618 | 9.44° C | 71% | 1016.8 hPa | 0 mm | - | - | - |
| 1777861022 | 9.44° C | 71% | 1016.8 hPa | 0 mm | - | - | - |
| 1777859818 | 9.44° C | 73% | 1016.9 hPa | 0 mm | - | - | - |
| 1777859220 | 9.44° C | 76% | 1016.8 hPa | 0 mm | - | - | - |
| 1777858619 | 9.44° C | 75% | 1016.9 hPa | 0 mm | - | - | - |
| 1777858018 | 9.44° C | 75% | 1016.9 hPa | 0 mm | - | - | - |
| 1777857418 | 9.44° C | 75% | 1016.9 hPa | 0 mm | - | - | - |
| 1777856821 | 9.44° C | 74% | 1016.9 hPa | 0 mm | - | - | - |
| 1777856218 | 10° C | 74% | 1017 hPa | 0 mm | - | - | - |
| 1777855622 | 10° C | 73% | 1017 hPa | 0 mm | - | - | - |
| 1777855018 | 10° C | 74% | 1017 hPa | 0 mm | - | - | - |
| 1777853818 | 10° C | 73% | 1017.2 hPa | 0 mm | - | - | - |
| 1777853218 | 10.56° C | 73% | 1017.4 hPa | 0 mm | - | - | - |
| 1777852021 | 10.56° C | 73% | 1017.5 hPa | 0 mm | - | - | - |
* Rain latest hour (hover to see other rain measurements)
** Current wind speed in m/s (hover to see current wind gust speed)